This demonstration page uses our WeatherBlox Daily Observations layout. Learn more.

Left ArrowRight Arrow

36.19886, -115.1175

Hourly Observations for December 10, 2022

Temp ( °F °C ) Dew Point ( °F °C ) Humidity (%) Winds ( mph kmh ) Pressure ( in mb ) Visibility ( mi km ) Precip ( " mm )
12:53 am 00:53 Clear 40 4.4 26 -3.3 57 57 NW 5 7 30.15 1021 10 16 0.00 0.00
1:53 am 01:53 Clear 40 4.4 26 -3.3 57 57 Calm 30.14 1021 10 16 0.00 0.00
2:53 am 02:53 Clear 39 3.9 25 -3.9 57 57 Calm 30.14 1021 10 16 0.00 0.00
3:53 am 03:53 Clear 42 5.6 27 -2.8 55 55 WSW 5 7 30.13 1020 10 16 0.00 0.00
4:53 am 04:53 Clear 39 3.9 26 -3.3 59 59 ENE 7 11 30.15 1021 10 16 0.00 0.00
5:53 am 05:53 Clear 39 3.9 26 -3.3 59 59 Calm 30.16 1021 10 16 0.00 0.00
6:53 am 06:53 Sunny 40 4.4 27 -2.8 59 59 Calm 30.16 1021 10 16 0.00 0.00
7:53 am 07:53 Sunny 40 4.4 27 -2.8 59 59 Calm 30.17 1022 10 16 0.00 0.00
8:53 am 08:53 Sunny 47 8.3 27 -2.8 45 45 SSE 7 11 30.16 1021 10 16 0.00 0.00
9:53 am 09:53 Sunny 49 9.4 27 -2.8 42 42 ESE 6 9 30.17 1022 10 16 0.00 0.00
10:53 am 10:53 Sunny 51 10.6 27 -2.8 39 39 SSE 8 13 30.14 1021 10 16 0.00 0.00
11:53 am 11:53 Sunny 54 12.2 26 -3.3 34 34 SE 8 13 30.10 1019 10 16 0.00 0.00
12:53 pm 12:53 Sunny 55 12.8 26 -3.3 32 32 VRB 7 11 30.07 1018 10 16 0.00 0.00
1:53 pm 13:53 Sunny 57 13.9 26 -3.3 30 30 E 9 15 30.05 1018 10 16 0.00 0.00
2:53 pm 14:53 Sunny 58 14.4 26 -3.3 29 29 NE 9 15 30.04 1017 10 16 0.00 0.00
3:53 pm 15:53 Sunny 58 14.4 24 -4.4 27 27 E 13 20 30.01 1016 10 16 0.00 0.00
4:53 pm 16:53 Clear 55 12.8 23 -5 28 28 ESE 8 13 30.01 1016 10 16 0.00 0.00
5:53 pm 17:53 Clear 54 12.2 23 -5 30 30 E 9 15 30.01 1016 10 16 0.00 0.00
6:53 pm 18:53 Clear 54 12.2 22 -5.6 28 28 SSE 10 17 30.00 1016 10 16 0.00 0.00
7:53 pm 19:53 Clear 53 11.7 22 -5.6 29 29 SSE 6 9 30.00 1016 10 16 0.00 0.00
8:53 pm 20:53 Clear 49 9.4 22 -5.6 34 34 ENE 6 9 30.00 1016 10 16 0.00 0.00
9:53 pm 21:53 Clear 51 10.6 22 -5.6 31 31 E 12 19 29.98 1015 10 16 0.00 0.00
10:53 pm 22:53 Clear 52 11.1 22 -5.6 30 30 E 5 7 29.97 1015 10 16 0.00 0.00
11:53 pm 23:53 Clear 54 12.2 21 -6.1 27 27 SSE 8 13 29.95 1014 10 16 0.00 0.00

Powered by AerisWeather